Погода в Федурино

Россия / Ярославская область     58°02′38″N   40°27′00″E
темп.,
°C
ветер,
м/с
пор.,
м/с
влажн.,
%
обл.,
%
осадки,
мм/ч
давл.,
гПа
погр.,
м
9 мая, вс
вс900:00+8вюв41096100 6.6 1004410
03:00+10ююв51196100 8.3 1002694
06:00+9ю2799100 2.3 1003361
09:00+8сз3796100 2.5 1005409
12:00+7ссз61092100 0.3 1008610
15:00+5ссз61292100 0.4 1011685
18:00+7ссз51181100 0.2 10141072
21:00+5ссз31176100 0.2 1017498
10 мая, пн
пн1000:00+3сз31180100 0.0 1019323
03:00+2ссз4118033 0.0 1022267
06:00+3ссз411750 0.0 1024364
09:00+9с58480 0.0 10261149
12:00+12с45380 0.0 10271554
15:00+14с34360 0.0 10271605
18:00+13ссв23505 0.0 1027328
21:00+7ссв11655 0.0 102910
11 мая, вт
вт1100:00+5св11685 0.0 102910
03:00+4ссв117130 0.0 103010
06:00+7всв126959 0.0 103168
09:00+13в234953 0.0 1031491
12:00+17всв2341100 0.0 1030932
15:00+18в2342100 0.0 10291048
18:00+17всв246199 0.0 1029118
21:00+11в227630 0.0 103015
12 мая, ср
ср1200:00+9в22785 0.0 103011
03:00+8св22750 0.0 103019
06:00+10всв24740 0.0 1030102
09:00+17в24560 0.0 1029429
12:00+21в45500 0.0 1028994
15:00+23вюв464878 0.0 10261671
18:00+21в48615 0.1 1025520
21:00+15вюв3108434 0.1 1025187
13 мая, чт
чт1300:00+13вюв239050 0.1 102647
03:00+14вюв238380 0.1 102553
06:00+14в388789 0.0 1025204
09:00+18юв4967100 0.0 1024734
12:00+21юв5105696 0.0 10231155
15:00+22юв595299 0.0 10211291
18:00+18юв41071100 0.1 1021441
21:00+15ююв41194100 2.4 1021484